Regional Weather Roundup
Issued by NWS

Home | Current Version | Previous Version | Graphics & Text | Print | Product List | Glossary On
Versions: 1 2 3 4 5 6 7 8 9 10 11 12 13 14 15 16 17 18 19 20 21 22 23 24 25 26 27
000
ASUS43 KDMX 250807
RWRIA

WEATHER ROUNDUP FOR IOWA
NATIONAL WEATHER SERVICE DES MOINES IA
300 AM CDT SAT OCT 25 2014

NOTE: "FAIR" INDICATES FEW OR NO CLOUDS BELOW 12,000 FEET WITH NO
SIGNIFICANT WEATHER AND/OR OBSTRUCTIONS TO VISIBILITY.

* - THESE STATIONS ARE NOT NWS STATIONS...THUS NOT UNDER NWS
QUALITY CONTROL.  THEY ALSO DO NOT REPORT WEATHER SUCH
AS PRECIPITATION OR FOG.

IAZ001>003-012>014-020>022-031>034-043>046-250900-
   NORTHWEST IOWA

CITY           SKY/WX    TMP DP  RH WIND       PRES   REMARKS
CARROLL *      CLEAR     50  46  87 NW5       30.01S
CHEROKEE *     CLEAR     45  45 100 NE3       30.03R
DENISON *      CLEAR     46  46 100 CALM      30.01S
LE MARS *      CLEAR     43  43 100 CALM      30.04R
ORANGE CITY *  CLEAR     55  41  58 CALM      30.04R
SHELDON *      CLEAR     45  43  93 NE5       30.03R
SIOUX CITY     CLEAR     46  42  86 CALM      30.03R
SPENCER        CLEAR     48  41  76 N8        30.04R
STORM LAKE *   CLEAR     55  41  58 NW9       30.04R
$$

IAZ055>058-069>071-079>083-090>094-250900-
   SOUTHWEST IOWA

CITY           SKY/WX    TMP DP  RH WIND       PRES   REMARKS
AUDUBON *      CLEAR     45  39  81 CALM      30.03R
CLARINDA *     FOG       46  46 100 CALM      30.03S VSB 1/4
COUNCIL BLFS * CLEAR     55  52  88 N6        30.01R
CRESTON *      CLEAR     54  54 100 N8        30.02R
HARLAN  *      CLEAR     46  46 100 CALM      30.06R FOG
LAMONI           N/A     53  53 100 N7        30.00R FOG
RED OAK *      FOG       46  46 100 CALM      30.02S VSB 0
SHENANDOAH *   FOG       46  46 100 CALM      30.02S VSB 0
$$

IAZ047>049-059>061-072>074-084-250900-
   CENTRAL IOWA

CITY           SKY/WX    TMP DP  RH WIND       PRES   REMARKS
AMES           CLEAR     46  44  93 CALM      29.99R
ANKENY *       CLEAR     46  46 100 CALM      29.99R FOG
CHARITON *     CLEAR     54  54 100 NW7       30.00R FOG
DES MOINES     CLEAR     53  51  93 CALM      30.00R FOG
GRINNELL*      FOG       50  50 100 NW5       29.99R VSB 1/4
KNOXVILLE *    FOG       50  50 100 W7        29.98S VSB 0
MARSHALLTOWN   FOG       46  45  96 CALM      29.97R VSB 1/4
PELLA *        FOG       54  54 100 W3        30.00R VSB 1/2
PERRY *          N/A     50  48  93 W8        30.00S
$$

IAZ004>006-015-016-023>025-035-036-250900-
   NORTH CENTRAL IOWA

CITY           SKY/WX    TMP DP  RH WIND       PRES   REMARKS
ALGONA *       CLEAR     55  43  62 NW7       30.01S
CLARION *      CLEAR     48  46  93 NW5       30.00S
ESTHERVILLE    PTCLDY    55  41  59 W8        30.02R
FORT DODGE *   CLEAR     50  43  76 CALM      30.02R
MASON CITY     CLEAR     48  42  80 W10       30.00R
FOREST CITY *  CLEAR     50  43  76 W8        30.00R
IOWA FALLS *     N/A     50  46  87 W6        30.00R
$$

IAZ007>011-017>019-026>030-037>042-050>054-066-250900-
   NORTHEAST IOWA

CITY           SKY/WX    TMP DP  RH WIND       PRES   REMARKS
CEDAR RAPIDS   FOG       52  52 100 NW6       29.96R VSB 1/4
CHARLES CITY * CLEAR     48  48 100 W8        29.97R
CLINTON *      CLOUDY    55  54  94 W6        29.97R VSB 1/2
DECORAH *      CLEAR     54  54 100 VRB6      29.94R FOG
DUBUQUE        CLOUDY    58  58 100 W10       29.94S FOG
MONTICELLO *   FOG       59  59 100 W12       29.95R VSB 1
OELWEIN *      FOG       52  52 100 SW3       29.96S VSB 0
WATERLOO       FOG       48  48 100 CALM      29.95F VSB 1/4
$$

IAZ064-065-067-068-078-250900-
   EAST CENTRAL IOWA

CITY           SKY/WX    TMP DP  RH WIND       PRES   REMARKS
DAVENPORT      CLOUDY    55  54  96 NW7       29.96R FOG
IOWA CITY      FOG       53  53 100 CALM      29.98R VSB 1/4
MT. PLEASANT * FOG       50  50 100 W5        29.96S VSB 1/4
MUSCATINE *    FOG       48  46  93 NW3       29.97R VSB 0
QUAD CITIES    FOG       51  50  96 W6        29.95R VSB 1/4
$$

IAZ062-063-075>077-085>089-095>099-250900-
   SOUTHEAST IOWA

CITY           SKY/WX    TMP DP  RH WIND       PRES   REMARKS
BURLINGTON     FOG       54  54 100 W3        29.94F VSB 1/4
FAIRFIELD *    CLOUDY    50  50 100 W6        29.98R
FORT MADISON * FOG       57  57 100 CALM      29.96S VSB 1/4
KEOKUK *       FOG       52  52 100 W5        29.95F VSB 0
OSKALOOSA *    FOG       50  50 100 NW6       29.99R VSB 1/4
CENTERVILLE *  FOG       50  50 100 W5        30.00R VSB 1/2
OTTUMWA        FOG       53  52  96 W7        29.98R VSB 1/4
WASHINGTON *   FOG       54  54 100 W5        29.97R VSB 0
$$

ABBREVIATIONS USED IN REMARKS
   TC - TEMPERATURES IN CELSIUS
  WCI - WIND CHILL INDEX
   HX - HEAT INDEX
  VSB - VISIBILITY
$$




USA.gov is the U.S. government's official web portal to all federal, state and local government web resources and services.